User: anonymous   Login
Location: Unspecified
(0.0000°N, 0.0000°E)
Time: 10:33:01
(UTC+00:00)
Language:

WGS F1 (USA 195) - Orbit

View from above orbital plane
View from above orbital plane
View from above satellite
View from above satellite

Ground track
Ground track

The orbit data is extracted from the following two-line orbital elements,

1 32258U 07046A   18196.09085928 0.00000000  00000-0  00000-0 0    06
2 32258   0.0210 331.5549 0005459 202.5038 157.4840  1.00270000    07
Epoch (UTC): 15 July 2018 02:10:50
Eccentricity: 0.0005459
inclination: 0.0210°
perigee height: 35764 km
apogee height: 35810 km
right ascension of ascending node: 331.5549°
argument of perigee: 202.5038°
revolutions per day: 1.00270000
mean anomaly at epoch: 157.4840°
orbit number at epoch: 0

The dashed part of the orbit path shows where the satellite is in the earth's shadow,  

DLR